Theta_e
300 299 304 308 310 313 313 313 313 313 313 313 314 316 318 323 324 326 328 331 336 341 344 344 343 340 341 339 338 339 337 336
298 298 298 300 299 309 311 312 312 311 311 311 309 310 313 315 317 322 324 326 328 334 337 341 341 339 337 338 338 338 335 335
297 297 297 298 299 302 305 308 310 309 307 308 304 302 304 308 313 317 320 323 323 325 330 337 339 338 338 337 337 338 336 334
295 295 295 297 299 297 299 301 301 302 301 300 300 300 301 304 308 312 315 318 320 321 324 330 337 339 337 337 337 338 336 335
295 295 295 295 296 297 298 298 300 300 300 299 298 299 298 299 301 305 308 312 311 316 317 321 325 339 339 338 337 337 336 335
294 294 294 294 295 296 297 297 299 299 298 298 297 297 297 297 298 300 302 305 306 309 315 316 319 324 338 337 336 336 336 332
293 293 293 294 294 295 296 296 297 298 298 297 297 296 296 296 297 297 298 300 302 304 309 312 316 318 331 336 335 335 335 335
293 294 293 293 293 292 294 295 295 297 297 296 295 296 295 296 296 296 296 297 300 302 304 306 310 314 322 336 335 335 334 335
293 295 293 292 291 292 294 294 295 294 295 295 293 295 294 295 295 295 296 296 299 301 302 304 307 313 315 335 334 333 333 334
292 295 292 292 291 292 293 293 293 293 293 293 292 294 293 294 295 294 295 296 297 298 299 300 302 305 311 328 332 332 331 332
291 292 291 292 292 292 292 292 292 292 291 291 291 292 293 293 294 293 294 295 295 295 297 298 298 302 308 313 331 330 331 330
291 292 291 291 291 291 291 291 292 292 291 292 291 291 292 292 292 292 293 294 294 293 294 297 297 301 302 311 327 327 329 330
291 291 291 290 289 289 290 289 290 291 291 291 290 290 291 292 291 291 292 293 293 293 293 294 295 297 301 312 323 324 325 326
291 290 290 290 290 289 289 289 290 290 289 289 290 290 291 291 291 290 292 292 293 292 292 291 293 295 295 298 310 318 321 324
291 290 290 290 290 289 289 290 289 287 287 287 288 290 291 291 291 290 291 292 292 292 292 290 289 294 295 295 296 307 314 321
289 290 290 291 290 288 286 285 284 286 285 287 287 289 290 291 292 292 291 292 291 292 292 290 290 289 293 297 297 298 300 313
288 289 290 290 289 288 286 285 285 286 285 285 286 288 289 291 293 293 291 291 291 292 290 287 290 290 291 292 294 297 300 302
287 288 288 289 288 288 287 285 285 285 285 284 286 288 288 290 292 293 293 292 292 291 287 287 289 290 291 292 293 293 295 298
289 287 287 288 287 288 287 286 285 285 285 284 285 286 286 287 291 292 291 292 292 290 286 287 289 289 290 291 294 294 296 298
286 287 287 287 287 287 286 285 285 286 286 285 286 286 286 288 289 290 290 290 291 288 286 287 289 289 290 292 293 294 295 297
Wind_Speed
10 12 17 21 24 27 27 28 28 29 29 30 28 27 27 27 26 25 26 23 19 17 11 11 11 11 11 14 12 12 6 4
10 10 12 13 11 24 27 24 26 28 29 29 28 26 25 26 27 25 26 24 22 17 16 12 11 11 10 13 14 11 6 6
11 12 11 11 13 14 17 21 22 23 23 27 19 13 16 18 22 25 27 25 24 20 18 12 12 11 12 12 14 6 6 5
7 7 9 11 10 10 10 11 8 8 11 14 11 12 15 18 19 26 23 27 24 24 21 17 10 5 5 9 5 8 7 7
9 9 7 10 10 8 6 6 6 6 11 11 11 10 10 10 10 10 11 19 10 14 13 9 11 6 6 7 7 8 6 5
7 7 7 8 6 7 8 8 7 6 8 12 10 8 10 9 8 12 11 11 13 11 8 11 12 12 9 9 10 8 7 5
8 7 7 7 9 8 7 7 7 5 8 10 10 9 8 8 9 10 11 11 10 9 12 9 12 11 13 10 10 10 10 7
6 6 7 7 7 7 6 6 6 6 7 9 14 9 9 8 10 11 12 11 12 11 12 11 11 9 15 11 11 10 11 11
6 5 6 7 7 6 6 5 5 6 6 10 13 12 11 11 10 11 11 12 13 11 11 9 9 9 15 12 9 11 11 11
6 5 6 7 7 6 5 5 4 5 5 6 11 11 12 11 10 10 11 11 11 11 10 11 10 10 8 11 8 9 11 12
5 6 7 7 7 5 6 6 4 4 4 4 10 10 11 10 10 10 12 8 10 11 10 9 10 12 9 9 7 8 10 10
5 5 6 7 5 5 4 4 4 4 6 7 11 7 9 8 8 9 10 9 9 11 14 11 10 9 12 10 8 6 8 8
6 6 6 4 3 4 4 5 4 6 8 10 11 10 9 12 10 12 11 10 11 11 10 12 9 12 8 2 2 3 3 6
6 6 5 4 3 3 3 3 3 3 6 7 9 9 13 12 12 10 11 9 11 11 12 10 8 9 6 7 5 3 2 4
5 6 6 5 6 4 4 3 4 3 6 7 9 9 12 12 12 12 9 9 8 10 12 13 8 7 9 4 3 2 1 2
5 6 6 6 7 6 6 4 4 3 4 6 8 10 11 11 10 9 8 7 9 7 8 10 11 10 8 8 5 5 6 3
5 5 7 7 7 5 4 5 4 4 5 7 6 9 10 12 11 10 9 7 9 9 11 11 8 8 8 8 8 7 11 3
5 6 6 7 6 5 7 7 8 7 8 6 6 7 7 11 12 9 10 9 9 8 11 10 9 9 8 8 6 5 9 5
4 6 6 7 6 6 7 7 7 8 9 6 8 8 8 10 12 10 9 11 10 9 10 10 9 9 10 8 7 6 6 8
5 5 6 6 5 7 7 7 5 6 6 6 7 7 8 10 9 10 9 9 8 10 7 9 9 8 10 9 8 7 5 6
Wind_Direction
3 3 8 6 11 13 12 17 18 17 13 12 4 0 356 351 354 350 354 353 340 327 235 215 205 198 183 171 183 171 152 154
1 0 4 1 4 5 10 7 13 15 15 13 10 6 357 352 347 347 348 350 346 333 337 228 208 203 188 180 175 185 155 161
5 6 9 2 5 359 359 359 6 16 12 9 8 3 355 351 343 344 341 343 346 349 331 318 208 208 184 195 162 181 163 168
2 353 2 3 3 359 354 353 360 4 8 6 3 1 360 357 347 349 345 338 344 342 342 334 259 191 188 183 195 174 179 175
357 0 356 5 4 359 355 359 4 3 7 7 359 357 355 359 351 342 340 347 335 333 341 328 339 238 189 177 183 190 178 180
348 358 359 5 3 1 354 2 7 9 6 4 358 357 356 355 355 350 350 347 334 327 319 320 320 327 221 183 178 197 172 176
352 6 2 358 9 359 358 1 1 4 5 1 358 352 347 349 352 351 352 353 343 347 307 333 321 320 282 203 186 189 193 169
339 8 2 4 2 348 347 356 351 8 360 359 353 342 340 346 354 351 350 343 332 335 346 326 323 316 297 222 191 186 188 190
357 360 5 11 351 344 354 352 0 8 355 0 353 346 342 330 352 354 348 342 337 332 329 331 320 302 317 226 203 186 182 184
352 3 1 6 354 344 344 346 357 356 354 354 352 345 345 336 352 351 351 346 339 343 340 333 327 321 297 271 203 186 188 172
354 357 357 353 344 334 334 345 357 344 338 340 346 346 347 348 360 348 347 350 345 343 335 338 321 310 317 296 221 194 184 171
356 353 348 344 329 326 323 340 346 340 342 348 341 331 347 340 354 345 347 346 351 350 337 341 316 322 321 305 239 190 180 173
358 345 342 354 325 342 346 349 335 356 353 346 341 335 345 356 356 353 347 345 346 354 344 334 343 339 304 309 338 163 137 167
344 351 352 347 345 324 337 332 322 333 339 337 335 338 357 354 354 351 345 341 342 347 353 347 338 346 324 282 281 180 205 189
343 351 0 3 355 344 352 328 315 326 345 349 340 326 357 350 355 354 344 343 340 345 348 353 335 334 324 286 341 311 349 203
9 16 8 2 2 18 11 330 324 301 304 322 330 325 337 345 336 340 347 342 338 343 351 344 336 337 345 354 343 304 305 184
16 21 14 2 9 22 333 328 292 292 307 322 325 335 326 333 341 341 340 344 344 349 358 346 334 329 336 337 322 307 254 246
33 21 2 0 3 340 331 320 317 325 331 328 331 336 330 330 337 346 349 347 345 0 350 342 332 335 331 334 333 324 335 338
18 17 355 345 355 302 333 328 319 322 333 324 335 340 338 333 337 352 355 354 353 356 343 342 338 334 329 324 315 325 317 303
17 358 351 344 336 331 333 337 340 347 341 330 338 336 329 333 338 345 345 345 355 357 341 347 340 331 323 325 322 318 307 289